sat.trackr.live / text

‹ back to catalog

STARLINK-34654

NORAD 64858 · 2025-152S

PAYLOAD ACTIVE UNKNOWN

§ Identity

Operator
Country
US
Launch date
2025-07-19
Launch site
AFWTR
Launch vehicle
Mass (kg)
RCS (m²)

Purposes: comms

External: N2YO · Heavens-Above · Gunter

§ Orbital elements

Epoch: 2026-09-20T13:52:49.618848Z

Period
93.91 min
Inclination
97.2843°
Eccentricity
0.0001938
Mean motion
15.33440101 rev/d
Perigee alt
464.2 km
Apogee alt
466.9 km
Semi-major
6,843.7 km
B*
3.8727e-4
RAAN
114.0967°
Arg perigee
92.7397°
Mean anomaly
267.4068°
Rev number
6,483

§ Raw data

STARLINK-346541 64858U 25152S   26263.57835207  .00012446  00000+0  38727-3 0  99982 64858  97.2843 114.0967 0001938  92.7397 267.4068 15.33440101 64838

JSON: /api/v1/satellites/64858 · /tle

For live sub-satellite position, see the globe view (requires WebGL).

§ Visibility from observer

Set your observer location to see the next 7 days of passes ≥ 10°. The values pass through the URL so the page stays shareable.

No JS? Fill the form by hand. The geolocation button needs JavaScript.